Previsão horária em Abergele

Hoje, 18 Maio, Terça-feira

Tempo Temperatura Precipitação Vento Pressão Humidade
00:00 +5°C° 0 mm 3 m/s 749 mmHg 93%
01:00 +5°C° 0 mm 3 m/s 750 mmHg 94%
02:00 +5°C° 0 mm 3 m/s 750 mmHg 94%
03:00 +5°C° 0 mm 3 m/s 750 mmHg 95%
04:00 +7°C° 0 mm 3 m/s 750 mmHg 93%
05:00 +6°C° 0 mm 4 m/s 750 mmHg 91%
06:00 +7°C° 0 mm 4 m/s 750 mmHg 90%
07:00 +8°C° 0 mm 4 m/s 751 mmHg 80%
08:00 +11°C° 0 mm 4 m/s 751 mmHg 71%
09:00 +12°C° 0 mm 4 m/s 751 mmHg 62%
10:00 +12°C° 0.1 mm 4 m/s 751 mmHg 61%
11:00 +13°C° 0.1 mm 4 m/s 751 mmHg 60%
12:00 +13°C° 0.1 mm 4 m/s 752 mmHg 60%
13:00 +13°C° 0.1 mm 4 m/s 752 mmHg 60%
14:00 +13°C° 0.1 mm 3 m/s 752 mmHg 60%
15:00 +13°C° 0.1 mm 3 m/s 752 mmHg 61%
16:00 +12°C° 0.1 mm 3 m/s 752 mmHg 64%
17:00 +13°C° 0.1 mm 2 m/s 752 mmHg 66%
18:00 +12°C° 0.1 mm 2 m/s 752 mmHg 69%
19:00 +10°C° 0 mm 2 m/s 752 mmHg 76%
20:00 +8°C° 0 mm 2 m/s 753 mmHg 83%
21:00 +7°C° 0 mm 1 m/s 753 mmHg 90%
22:00 +6°C° 0 mm 2 m/s 753 mmHg 91%
23:00 +6°C° 0 mm 2 m/s 753 mmHg 91%

Amanhã, 19 Maio, Quarta-feira

Tempo Temperatura Precipitação Vento Pressão Humidade
00:00 +5°C° 0 mm 2 m/s 753 mmHg 92%
01:00 +5°C° 0 mm 2 m/s 753 mmHg 91%
02:00 +5°C° 0 mm 2 m/s 753 mmHg 91%
03:00 +5°C° 0 mm 2 m/s 753 mmHg 90%
04:00 +6°C° 0 mm 2 m/s 754 mmHg 88%
05:00 +7°C° 0 mm 2 m/s 754 mmHg 87%
06:00 +7°C° 0 mm 3 m/s 754 mmHg 85%
07:00 +9°C° 0.1 mm 3 m/s 755 mmHg 81%
08:00 +10°C° 0.1 mm 4 m/s 755 mmHg 78%
09:00 +11°C° 0.1 mm 4 m/s 756 mmHg 74%
10:00 +12°C° 0.1 mm 5 m/s 756 mmHg 70%
11:00 +12°C° 0.1 mm 5 m/s 756 mmHg 66%
12:00 +13°C° 0.1 mm 5 m/s 756 mmHg 61%
13:00 +13°C° 0 mm 5 m/s 757 mmHg 59%
14:00 +13°C° 0 mm 5 m/s 757 mmHg 56%
15:00 +13°C° 0 mm 5 m/s 757 mmHg 53%
16:00 +13°C° 0 mm 5 m/s 757 mmHg 58%
17:00 +12°C° 0 mm 5 m/s 757 mmHg 62%
18:00 +12°C° 0 mm 4 m/s 758 mmHg 66%
19:00 +10°C° 0 mm 4 m/s 758 mmHg 75%
20:00 +8°C° 0 mm 4 m/s 758 mmHg 84%
21:00 +6°C° 0 mm 4 m/s 758 mmHg 93%
22:00 +7°C° 0 mm 3 m/s 758 mmHg 94%
23:00 +7°C° 0 mm 3 m/s 758 mmHg 94%

Depois de amanhã, 20 Maio, Quinta-feira

Tempo Temperatura Precipitação Vento Pressão Humidade
00:00 +5°C° 0 mm 3 m/s 758 mmHg 95%
01:00 +5°C° 0 mm 3 m/s 758 mmHg 95%
02:00 +5°C° 0 mm 3 m/s 758 mmHg 95%
03:00 +5°C° 0 mm 3 m/s 758 mmHg 95%
04:00 +7°C° 0 mm 3 m/s 758 mmHg 93%
05:00 +8°C° 0 mm 3 m/s 758 mmHg 91%
06:00 +9°C° 0 mm 3 m/s 758 mmHg 89%
07:00 +10°C° 0 mm 3 m/s 758 mmHg 81%
08:00 +11°C° 0 mm 3 m/s 758 mmHg 74%
09:00 +12°C° 0 mm 4 m/s 758 mmHg 67%
10:00 +13°C° 0 mm 4 m/s 757 mmHg 63%
11:00 +14°C° 0 mm 4 m/s 757 mmHg 59%
12:00 +14°C° 0 mm 4 m/s 756 mmHg 54%
13:00 +13°C° 0.4 mm 4 m/s 756 mmHg 67%
14:00 +11°C° 0.4 mm 4 m/s 755 mmHg 80%
15:00 +8°C° 0.4 mm 5 m/s 754 mmHg 93%
16:00 +9°C° 0.6 mm 5 m/s 753 mmHg 93%
17:00 +9°C° 0.6 mm 6 m/s 752 mmHg 93%
18:00 +9°C° 0.6 mm 6 m/s 751 mmHg 94%
19:00 +9°C° 0.3 mm 6 m/s 750 mmHg 93%
20:00 +9°C° 0.3 mm 6 m/s 750 mmHg 93%
21:00 +9°C° 0.3 mm 7 m/s 749 mmHg 93%
22:00 +9°C° 0.1 mm 7 m/s 748 mmHg 92%
23:00 +10°C° 0.1 mm 7 m/s 748 mmHg 91%

21 Maio, Sexta-feira

Tempo Temperatura Precipitação Vento Pressão Humidade
00:00 +10°C° 0.1 mm 7 m/s 747 mmHg 90%
01:00 +9°C° 0 mm 6 m/s 747 mmHg 90%
02:00 +8°C° 0 mm 6 m/s 746 mmHg 90%
03:00 +8°C° 0 mm 5 m/s 746 mmHg 90%
04:00 +8°C° 0.1 mm 6 m/s 745 mmHg 85%
05:00 +9°C° 0.1 mm 6 m/s 744 mmHg 81%
06:00 +9°C° 0.1 mm 7 m/s 743 mmHg 77%
07:00 +9°C° 0.2 mm 7 m/s 743 mmHg 77%
08:00 +10°C° 0.2 mm 8 m/s 742 mmHg 76%
09:00 +10°C° 0.2 mm 8 m/s 741 mmHg 76%
10:00 +10°C° 0.3 mm 8 m/s 741 mmHg 78%
11:00 +10°C° 0.3 mm 8 m/s 740 mmHg 80%
12:00 +9°C° 0.3 mm 8 m/s 739 mmHg 82%
13:00 +9°C° 0.6 mm 8 m/s 739 mmHg 85%
14:00 +9°C° 0.6 mm 8 m/s 738 mmHg 88%
15:00 +7°C° 0.6 mm 8 m/s 737 mmHg 91%
16:00 +7°C° 0.3 mm 8 m/s 736 mmHg 90%
17:00 +9°C° 0.3 mm 8 m/s 735 mmHg 88%
18:00 +9°C° 0.3 mm 7 m/s 734 mmHg 87%
19:00 +9°C° 0.8 mm 7 m/s 734 mmHg 89%
20:00 +9°C° 0.8 mm 7 m/s 733 mmHg 92%
21:00 +9°C° 0.8 mm 7 m/s 732 mmHg 94%
22:00 +9°C° 0.8 mm 7 m/s 732 mmHg 94%
23:00 +8°C° 0.8 mm 7 m/s 732 mmHg 94%

22 Maio, Sábado

Tempo Temperatura Precipitação Vento Pressão Humidade
00:00 +8°C° 0.8 mm 6 m/s 731 mmHg 94%
01:00 +8°C° 0.6 mm 6 m/s 730 mmHg 94%
02:00 +8°C° 0.6 mm 5 m/s 730 mmHg 95%
03:00 +9°C° 0.6 mm 5 m/s 729 mmHg 95%
04:00 +9°C° 0.6 mm 5 m/s 730 mmHg 96%
05:00 +9°C° 0.6 mm 6 m/s 730 mmHg 96%
06:00 +9°C° 0.6 mm 7 m/s 730 mmHg 96%
07:00 +9°C° 0.6 mm 8 m/s 731 mmHg 96%
08:00 +8°C° 0.6 mm 9 m/s 732 mmHg 96%
09:00 +7°C° 0.6 mm 10 m/s 733 mmHg 96%
10:00 +8°C° 0.2 mm 10 m/s 734 mmHg 95%
11:00 +8°C° 0.2 mm 9 m/s 735 mmHg 93%
12:00 +8°C° 0.2 mm 9 m/s 736 mmHg 91%
13:00 +10°C° 0.4 mm 9 m/s 737 mmHg 90%
14:00 +10°C° 0.4 mm 9 m/s 737 mmHg 89%
15:00 +10°C° 0.4 mm 9 m/s 737 mmHg 88%
16:00 +10°C° 0.5 mm 9 m/s 738 mmHg 89%
17:00 +8°C° 0.5 mm 9 m/s 738 mmHg 91%
18:00 +8°C° 0.5 mm 9 m/s 739 mmHg 92%
19:00 +7°C° 0.8 mm 9 m/s 740 mmHg 93%
20:00 +7°C° 0.8 mm 10 m/s 741 mmHg 94%
21:00 +7°C° 0.8 mm 10 m/s 741 mmHg 95%
22:00 +6°C° 0.1 mm 10 m/s 742 mmHg 94%
23:00 +6°C° 0.1 mm 10 m/s 743 mmHg 93%

23 Maio, Domingo

Tempo Temperatura Precipitação Vento Pressão Humidade
00:00 +4°C° 0.1 mm 11 m/s 744 mmHg 92%
01:00 +5°C° 0.1 mm 10 m/s 744 mmHg 89%
02:00 +5°C° 0.1 mm 10 m/s 745 mmHg 85%
03:00 +5°C° 0.1 mm 10 m/s 745 mmHg 82%
04:00 +5°C° 0.1 mm 10 m/s 746 mmHg 82%
05:00 +5°C° 0.1 mm 10 m/s 746 mmHg 83%
06:00 +5°C° 0.1 mm 9 m/s 747 mmHg 83%
07:00 +6°C° 0.1 mm 9 m/s 747 mmHg 77%
08:00 +7°C° 0.1 mm 9 m/s 748 mmHg 71%
09:00 +8°C° 0.1 mm 9 m/s 748 mmHg 66%
10:00 +8°C° 0 mm 9 m/s 748 mmHg 68%
11:00 +8°C° 0 mm 9 m/s 748 mmHg 70%
12:00 +9°C° 0 mm 8 m/s 748 mmHg 72%
13:00 +9°C° 0.2 mm 8 m/s 748 mmHg 77%
14:00 +7°C° 0.2 mm 8 m/s 748 mmHg 83%
15:00 +8°C° 0.2 mm 7 m/s 748 mmHg 88%
16:00 +8°C° 0.1 mm 7 m/s 748 mmHg 87%
17:00 +9°C° 0.1 mm 6 m/s 747 mmHg 87%
18:00 +9°C° 0.1 mm 6 m/s 747 mmHg 86%
19:00 +9°C° 0.2 mm 6 m/s 747 mmHg 89%
20:00 +9°C° 0.2 mm 7 m/s 747 mmHg 91%
21:00 +9°C° 0.2 mm 7 m/s 747 mmHg 93%
22:00 +8°C° 0.1 mm 7 m/s 748 mmHg 92%
23:00 +8°C° 0.1 mm 7 m/s 748 mmHg 91%
Mostrar mais

Necessitamos do seu Consentimento

A Meteoprog e os seus Fornecedores de Serviços podem armazenar e aceder a dados pessoais como cookies, identificadores do dispositivo ou outras tecnologias semelhantes existentes no seu dispositivo e processar estes dados para personalizar conteúdos e anúncios, assim como funcionalidades nas redes sociais e análise de tráfego.

  • Armazenar e/ou aceder a informações no seu dispositivo

    Os cookies, identificadores do dispositivo ou outras informações podem ser armazenados ou acedidos no seu dispositivo, para os fins acima indicados.

  • Anúncios e conteúdos personalizados, medição de anúncios e conteúdos, dados sobre o público-alvo e desenvolvimento de produtos

    Os anúncios e os conteúdos podem ser personalizados com base num perfil. Podem ser adicionados dados adicionais para uma maior personalização dos anúncios e dos conteúdos. A eficácia dos anúncios e dos conteúdos pode ser medida. Podem ser obtidas informações sobre o público que visualizou os anúncios e os conteúdos. Estes dados podem ser usados para desenvolver ou melhorar sistemas, softwares ou a experiência do utilizador.

Ao clicar em "Eu concordo”, permitirá o uso de cookies, identificadores do dispositivo e web beacons mencionados ou outras tecnologias semelhantes. As configurações do navegador do seu dispositivo podem ser alteradas.

Para certos fins, podem ser invocados interesses legítimos ao invés de consentimento. Pode ler mais informação sobre este assunto na nossa Política de Privacidade e Cookies.